EW3230 Weather Reports


Display with metric or nautical units.
time (UTC)temp
F
wind
direction
speed
MPH
gust
MPH
rain 1hr
in
rain 24hr
in
rain mn
in
humidity
%
barometer
mb
20181219000053 28 284 3.0 10.0 0.00 0.00 0.00 57 1016.1
20181218235052 28 274 1.0 10.0 0.00 0.00 0.00 58 1016.1
20181218234051 29 250 2.0 8.0 0.00 0.00 0.00 56 1016.1
20181218233052 29 332 3.0 14.0 0.00 0.00 0.00 56 1015.8
20181218232052 29 296 2.0 6.0 0.00 0.00 0.00 56 1015.8
20181218231051 29 256 2.0 8.0 0.00 0.00 0.00 57 1015.7
20181218230051 29 269 1.0 6.0 0.00 0.00 0.00 56 1015.5
20181218225051 29 236 1.0 5.0 0.00 0.00 0.00 57 1015.5
20181218224051 29 297 2.0 7.0 0.00 0.00 0.00 56 1015.1
20181218223051 29 217 2.0 8.0 0.00 0.00 0.00 56 1014.8
20181218222051 29 305 2.0 7.0 0.00 0.00 0.00 56 1014.6
20181218221051 29 276 1.0 6.0 0.00 0.00 0.00 56 1014.4
20181218220051 30 240 2.0 7.0 0.00 0.00 0.00 55 1014.3
20181218215052 30 294 2.0 8.0 0.00 0.00 0.00 55 1014.1
20181218214051 30 336 1.0 7.0 0.00 0.00 0.00 55 1013.9
20181218213051 30 297 2.0 7.0 0.00 0.00 0.00 54 1013.6
20181218212049 30 269 1.0 9.0 0.00 0.00 0.00 54 1013.5
20181218211049 31 263 3.0 9.0 0.00 0.00 0.00 53 1013.4
20181218210050 31 274 3.0 15.0 0.00 0.00 0.00 53 1013.4
20181218205051 31 277 3.0 9.0 0.00 0.00 0.00 52 1013.2
20181218204049 31 322 4.0 13.0 0.00 0.00 0.00 51 1013.0
20181218203046 32 283 4.0 12.0 0.00 0.00 0.00 51 1013.0
20181218202047 32 278 3.0 13.0 0.00 0.00 0.00 51 1012.7
20181218201046 32 197 4.0 14.0 0.00 0.00 0.00 50 1012.4
20181218200047 33 240 4.0 13.0 0.00 0.00 0.00 49 1012.1
20181218195047 33 313 2.0 7.0 0.00 0.00 0.00 50 1011.9
20181218194045 33 324 4.0 13.0 0.00 0.00 0.00 48 1011.9
20181218193045 33 316 4.0 13.0 0.00 0.00 0.00 48 1011.8
20181218192045 33 239 4.0 13.0 0.00 0.00 0.00 48 1011.4
20181218191045 33 294 4.0 9.0 0.00 0.00 0.00 48 1011.1
20181218190045 33 328 3.0 9.0 0.00 0.00 0.00 49 1010.9
20181218185043 33 328 4.0 12.0 0.00 0.00 0.00 49 1010.7
20181218184044 33 289 4.0 14.0 0.00 0.00 0.00 48 1010.6
20181218183045 33 322 4.0 16.0 0.00 0.00 0.00 49 1010.5
20181218182043 32 246 5.0 13.0 0.00 0.00 0.00 49 1010.4
20181218181042 32 342 4.0 14.0 0.00 0.00 0.00 49 1010.2
20181218180042 33 281 4.0 13.0 0.00 0.00 0.00 49 1010.2
20181218175042 32 311 3.0 9.0 0.00 0.00 0.00 50 1010.0
20181218174041 32 73 4.0 14.0 0.00 0.00 0.00 50 1010.0
20181218173042 32 305 4.0 12.0 0.00 0.00 0.00 51 1009.9
20181218172040 31 301 4.0 11.0 0.00 0.00 0.00 51 1010.0
20181218171039 31 315 4.0 16.0 0.00 0.00 0.00 50 1010.0
20181218170040 31 297 4.0 12.0 0.00 0.00 0.00 52 1009.9
20181218165039 31 250 5.0 14.0 0.00 0.00 0.00 51 1010.0
20181218164038 31 352 3.0 13.0 0.00 0.00 0.00 52 1009.8
20181218163037 30 322 5.0 12.0 0.00 0.00 0.00 52 1009.9
20181218162037 30 287 6.0 14.0 0.00 0.00 0.00 52 1009.6
20181218161038 30 287 5.0 14.0 0.00 0.00 0.00 53 1009.6
20181218160037 30 326 3.0 11.0 0.00 0.00 0.00 53 1009.5
20181218155036 30 11 4.0 17.0 0.00 0.00 0.00 53 1009.5
20181218154035 29 300 5.0 15.0 0.00 0.00 0.00 53 1009.6
20181218153036 29 294 4.0 12.0 0.00 0.00 0.00 54 1009.6
20181218152035 29 322 5.0 12.0 0.00 0.00 0.00 54 1009.5
20181218151035 28 312 4.0 18.0 0.00 0.00 0.00 55 1009.5
20181218150037 28 277 5.0 14.0 0.00 0.00 0.00 54 1009.4
20181218145033 28 236 6.0 14.0 0.00 0.00 0.00 55 1009.4
20181218144033 27 277 6.0 16.0 0.00 0.00 0.00 55 1009.2
20181218143033 27 12 5.0 16.0 0.00 0.00 0.00 56 1009.1
20181218142033 27 329 6.0 16.0 0.00 0.00 0.00 56 1009.0
20181218141033 27 273 5.0 14.0 0.00 0.00 0.00 57 1008.9
20181218140034 26 309 5.0 16.0 0.00 0.00 0.00 58 1008.9
20181218135031 26 298 6.0 16.0 0.00 0.00 0.00 58 1008.8
20181218134031 26 242 6.0 20.0 0.00 0.00 0.00 58 1008.8
20181218133031 26 270 5.0 28.0 0.00 0.00 0.00 59 1008.4
20181218132031 26 311 6.0 20.0 0.00 0.00 0.00 59 1008.0
20181218131029 26 255 5.0 16.0 0.00 0.00 0.00 59 1007.9
20181218130029 26 275 5.0 17.0 0.00 0.00 0.00 60 1007.6
20181218125030 25 252 4.0 14.0 0.00 0.00 0.00 60 1007.6
20181218124029 25 58 4.0 11.0 0.00 0.00 0.00 60 1007.4
20181218123030 25 248 4.0 12.0 0.00 0.00 0.00 60 1007.4
20181218122027 25 296 4.0 12.0 0.00 0.00 0.00 60 1007.2
20181218121027 25 315 4.0 13.0 0.00 0.00 0.00 60 1007.1
20181218120027 25 52 5.0 12.0 0.00 0.00 0.00 59 1006.8
20181218115029 25 271 5.0 22.0 0.00 0.00 0.00 59 1006.7
20181218114026 25 319 5.0 14.0 0.00 0.00 0.00 59 1006.7
20181218113025 25 290 5.0 17.0 0.00 0.00 0.00 59 1006.5
20181218112025 25 280 5.0 16.0 0.00 0.01 0.00 59 1006.4
20181218111025 25 302 5.0 14.0 0.00 0.01 0.00 59 1006.3
20181218110025 25 356 5.0 18.0 0.00 0.01 0.00 58 1006.0
20181218105025 26 250 5.0 19.0 0.00 0.01 0.00 59 1005.7
20181218104023 26 322 6.0 16.0 0.00 0.01 0.00 58 1005.5
20181218103025 26 315 5.0 15.0 0.00 0.01 0.00 58 1005.3
20181218102023 27 317 4.0 14.0 0.00 0.01 0.00 58 1005.3
20181218101025 27 311 5.0 16.0 0.00 0.01 0.00 58 1004.9
20181218100023 28 322 5.0 18.0 0.00 0.01 0.00 57 1004.5
20181218095024 28 72 6.0 17.0 0.00 0.01 0.00 57 1004.5
20181218094023 29 350 7.0 26.0 0.00 0.02 0.00 56 1004.4
20181218093023 30 325 5.0 23.0 0.00 0.02 0.00 65 1003.8
20181218092024 31 9 5.0 19.0 0.00 0.02 0.00 65 1003.7
20181218091023 31 277 4.0 17.0 0.00 0.02 0.00 67 1003.5
20181218090023 31 321 4.0 13.0 0.00 0.02 0.00 70 1003.2
20181218085023 32 89 4.0 17.0 0.00 0.02 0.00 70 1002.8
20181218084023 32 290 3.0 9.0 0.00 0.02 0.00 72 1002.7
20181218083024 32 318 3.0 15.0 0.00 0.03 0.00 74 1002.5
20181218082022 32 249 2.0 10.0 0.00 0.03 0.00 77 1002.4
20181218081023 32 336 3.0 9.0 0.00 0.03 0.00 79 1002.4
20181218080024 33 277 2.0 7.0 0.00 0.03 0.00 80 1002.2
20181218075024 33 294 4.0 11.0 0.00 0.04 0.00 80 1002.2
20181218074023 33 322 2.0 10.0 0.00 0.04 0.00 81 1002.0
20181218073023 33 317 1.0 8.0 0.00 0.04 0.00 85 1001.9
20181218072024 33 260 1.0 7.0 0.00 0.04 0.00 86 1001.6
20181218071023 33 256 2.0 11.0 0.00 0.04 0.00 87 1001.5
20181218070023 33 257 2.0 11.0 0.00 0.04 0.00 88 1001.5
20181218065024 34 256 3.0 12.0 0.00 0.04 0.00 88 1001.3
20181218064021 35 225 3.0 11.0 0.00 0.05 0.00 88 1001.2
20181218063021 37 238 3.0 14.0 0.00 0.05 0.00 81 1001.1
20181218062021 38 238 1.0 6.0 0.00 0.05 0.00 78 1000.7
20181218061021 38 319 1.0 8.0 0.00 0.05 0.00 77 1000.6
20181218060021 38 95 1.0 9.0 0.00 0.06 0.00 78 1000.8
20181218055019 38 232 1.0 8.0 0.00 0.06 0.00 77 1000.8
20181218054021 38 223 2.0 9.0 0.00 0.06 0.00 78 1000.8
20181218053020 38 240 2.0 10.0 0.00 0.07 0.00 78 1000.8
20181218052023 38 328 2.0 9.0 0.00 0.07 0.00 79 1001.0
20181218051018 38 221 1.0 5.0 0.00 0.07 0.00 78 1000.9
20181218050017 38 232 1.0 6.0 0.00 0.08 0.00 78 1000.9
20181218045017 38 240 1.0 6.0 0.00 0.08 0.08 79 1001.1
20181218044018 38 270 1.0 5.0 0.00 0.09 0.08 78 1001.1
20181218043018 38 197 1.0 7.0 0.00 0.09 0.08 78 1001.3
20181218042017 38 266 1.0 5.0 0.00 0.10 0.08 78 1001.5
20181218041015 37 118 1.0 10.0 0.00 0.10 0.08 78 1001.5
20181218040015 38 204 1.0 7.0 0.00 0.11 0.08 78 1001.4
20181218035015 38 267 1.0 6.0 0.00 0.12 0.08 78 1001.5
20181218034015 37 281 1.0 6.0 0.00 0.13 0.08 78 1001.7
20181218033013 37 218 1.0 8.0 0.00 0.14 0.08 78 1001.7
20181218032013 38 277 1.0 6.0 0.00 0.14 0.08 78 1001.7
20181218031018 38 262 1.0 7.0 0.00 0.15 0.08 78 1001.7
20181218030016 38 250 2.0 7.0 0.00 0.15 0.08 78 1001.7
20181218025014 37 248 2.0 8.0 0.00 0.15 0.08 78 1001.8
20181218024011 37 257 2.0 7.0 0.00 0.15 0.08 79 1002.0
20181218023012 37 281 1.0 7.0 0.00 0.15 0.08 79 1001.9
20181218022012 37 293 2.0 8.0 0.00 0.15 0.08 79 1001.9
20181218021012 37 79 1.0 6.0 0.00 0.16 0.08 79 1001.7
20181218020009 37 250 1.0 7.0 0.00 0.16 0.08 79 1001.7
20181218015010 37 291 1.0 7.0 0.00 0.17 0.08 80 1001.6
20181218014009 37 259 2.0 6.0 0.00 0.18 0.08 80 1001.6
20181218013009 37 259 0.0 3.0 0.00 0.18 0.08 81 1001.5
20181218012008 37 212 1.0 6.0 0.00 0.18 0.08 81 1001.5
20181218011007 37 281 1.0 5.0 0.00 0.18 0.08 81 1001.6
20181218010007 37 262 1.0 6.0 0.00 0.19 0.08 81 1001.6
20181218005007 37 267 1.0 4.0 0.00 0.19 0.08 82 1001.5
20181218004007 38 281 1.0 6.0 0.00 0.21 0.08 81 1001.5
20181218003008 38 41 1.0 6.0 0.00 0.22 0.08 82 1001.4
20181218002008 38 295 1.0 5.0 0.00 0.23 0.08 83 1001.3
20181218001007 38 45 1.0 6.0 0.00 0.25 0.08 83 1001.3